Date String (YYYY-MM-DD hh:mm:ss) UTC,Instrument flags,Ambient pressure (hPa),Sample flow (lpm),Bypass flow (lpm),Sample temperature (°C),Ambient temperature (°C),ASC tube jacket temperature (°C),LED temperature (°C),Box temperature (°C),Sample RH (%),Span deviation,Mass concentration (μg/m³),Mass concentration (μg/m³),Mass concentration (μg/m³)
DateTimeUTC,F1_M11,P_M11,Q1_M11,Q2_M11,T1_M11,T2_M11,T3_M11,T4_M11,T5_M11,U1_M11,ZSPAN_M11,X0_M11,X2_M11,X1_M11
2022-05-03 16:00:00,,0822.3,4.99,0.00,23.3,22.5,00.0,32.3,25.1,23.0,-001.8,0009.84,0008.11,0007.95
2022-05-03 16:01:00,,0822.3,5.00,0.00,23.3,22.5,00.0,32.3,25.1,23.0,-001.6,0009.87,0008.15,0007.98
2022-05-03 16:02:00,,0822.3,5.01,0.00,23.3,22.6,00.0,32.3,25.1,23.2,-001.6,0009.88,0008.18,0008.00
2022-05-03 16:03:00,,0822.3,4.99,0.00,23.3,22.6,00.0,32.3,25.1,23.4,-001.6,0009.91,0008.20,0008.02
2022-05-03 16:04:00,,0822.3,5.00,0.00,23.3,22.5,00.0,32.3,25.1,23.5,-001.8,0009.89,0008.19,0008.00
2022-05-03 16:05:00,,0822.4,5.01,0.00,23.3,22.5,00.0,32.3,25.1,23.3,-001.9,0009.80,0008.16,0007.99
2022-05-03 16:06:00,,0822.3,4.99,0.00,23.3,22.5,00.0,32.3,25.1,23.2,-002.0,0009.66,0008.11,0007.96
2022-05-03 16:07:00,,0822.3,5.00,0.00,23.3,22.5,00.0,32.3,25.0,23.0,-001.8,0009.63,0008.07,0007.93
2022-05-03 16:08:00,,0822.3,5.00,0.00,23.3,22.5,00.0,32.3,25.0,23.1,-001.9,0009.61,0008.06,0007.91
2022-05-03 16:09:00,,0822.3,5.00,0.00,23.3,22.5,00.0,32.2,25.0,23.0,-002.0,0009.59,0008.05,0007.90
2022-05-03 16:10:00,,0822.3,4.99,0.00,23.3,22.5,00.0,32.2,25.1,23.0,-002.1,0009.59,0008.01,0007.86
2022-05-03 16:11:00,,0822.3,5.01,0.00,23.3,22.5,00.0,32.2,25.1,23.0,-002.1,0009.57,0007.99,0007.83
2022-05-03 16:12:00,,0822.3,4.99,0.00,23.3,22.5,00.0,32.2,25.1,23.0,-002.2,0009.55,0007.96,0007.80
2022-05-03 16:13:00,,0822.2,5.00,0.00,23.3,22.5,00.0,32.2,25.1,23.0,-002.1,0009.51,0007.93,0007.79
2022-05-03 16:14:00,,0822.2,5.01,0.00,23.3,22.5,00.0,32.2,25.1,23.0,-002.2,0009.53,0007.92,0007.78
2022-05-03 16:15:00,,0822.2,4.99,0.00,23.3,22.5,00.0,32.2,25.1,23.0,-002.3,0009.60,0007.95,0007.78
2022-05-03 16:16:00,,0822.2,5.00,0.00,23.2,22.5,00.0,32.2,25.0,23.0,-001.9,0009.61,0007.95,0007.76
2022-05-03 16:17:00,,0822.1,5.00,0.00,23.3,22.5,00.0,32.2,25.1,22.9,-001.7,0009.66,0007.96,0007.77
2022-05-03 16:18:00,,0822.1,5.00,0.00,23.3,22.5,00.0,32.2,25.1,23.0,-001.7,0009.71,0007.99,0007.79
2022-05-03 16:19:00,,0822.1,5.01,0.00,23.3,22.5,00.0,32.2,25.1,23.0,-001.9,0009.69,0007.97,0007.80
2022-05-03 16:20:00,,0822.0,4.99,0.00,23.3,22.5,00.0,32.2,25.1,23.0,-002.0,0009.68,0007.95,0007.79
2022-05-03 16:21:00,,0822.1,4.99,0.00,23.3,22.5,00.0,32.2,25.1,23.2,-002.1,0009.64,0007.95,0007.79
2022-05-03 16:22:00,,0822.1,5.01,0.00,23.3,22.6,00.0,32.2,25.1,23.3,-002.2,0009.70,0007.95,0007.78
2022-05-03 16:23:00,,0822.1,4.99,0.00,23.3,22.6,00.0,32.2,25.1,23.2,-002.4,0009.77,0007.96,0007.78
2022-05-03 16:24:00,,0822.1,5.01,0.00,23.3,22.6,00.0,32.2,25.1,23.0,-002.4,0009.85,0007.98,0007.78
2022-05-03 16:25:00,,0822.1,5.00,0.00,23.3,22.6,00.0,32.2,25.1,23.0,-002.3,0009.89,0007.96,0007.76
2022-05-03 16:26:00,,0822.1,4.99,0.00,23.3,22.6,00.0,32.3,25.2,23.0,-002.1,0009.88,0007.95,0007.76
2022-05-03 16:27:00,,0822.1,5.00,0.00,23.3,22.6,00.0,32.3,25.2,23.1,-002.1,0010.38,0007.97,0007.76
2022-05-03 16:28:00,,0822.1,5.01,0.00,23.3,22.6,00.0,32.3,25.2,23.2,-002.1,0011.04,0007.95,0007.74
2022-05-03 16:29:00,,0822.1,4.98,0.00,23.4,22.6,00.0,32.3,25.2,23.3,-002.1,0011.74,0007.93,0007.70
2022-05-03 16:30:00,,0822.1,5.00,0.00,23.4,22.7,00.0,32.3,25.2,23.1,-002.0,0011.86,0007.94,0007.67
2022-05-03 16:31:00,,0822.1,5.01,0.00,23.4,22.7,00.0,32.3,25.2,22.8,-001.9,0011.92,0007.94,0007.66
2022-05-03 16:32:00,,0822.1,5.00,0.00,23.4,22.7,00.0,32.3,25.2,22.7,-001.7,0011.95,0007.95,0007.65
2022-05-03 16:33:00,,0822.1,5.01,0.00,23.4,22.7,00.0,32.3,25.2,22.9,-001.6,0011.89,0007.93,0007.63
2022-05-03 16:34:00,,0822.1,4.99,0.00,23.4,22.7,00.0,32.3,25.2,22.9,-001.5,0011.83,0007.91,0007.63
2022-05-03 16:35:00,,0822.1,4.99,0.00,23.4,22.7,00.0,32.3,25.2,22.9,-001.5,0011.74,0007.85,0007.61
2022-05-03 16:36:00,,0822.1,5.01,0.00,23.4,22.7,00.0,32.3,25.2,22.9,-001.5,0011.65,0007.79,0007.56
2022-05-03 16:37:00,,0822.1,4.99,0.00,23.4,22.7,00.0,32.3,25.2,22.9,-001.5,0011.63,0007.73,0007.50
2022-05-03 16:38:00,,0822.1,5.00,0.00,23.4,22.7,00.0,32.3,25.2,23.0,-001.4,0011.36,0007.65,0007.45
2022-05-03 16:39:00,,0822.1,5.01,0.00,23.4,22.7,00.0,32.3,25.2,23.1,-001.6,0010.67,0007.59,0007.40
2022-05-03 16:40:00,,0822.0,4.98,0.00,23.4,22.7,00.0,32.3,25.2,22.8,-001.6,0009.90,0007.53,0007.36
2022-05-03 16:41:00,,0821.9,5.01,0.00,23.4,22.7,00.0,32.3,25.2,22.8,-001.8,0009.72,0007.48,0007.33
2022-05-03 16:42:00,,0821.9,4.99,0.00,23.4,22.7,00.0,32.3,25.2,22.9,-001.8,0009.72,0007.45,0007.30
2022-05-03 16:43:00,,0821.9,5.01,0.00,23.4,22.7,00.0,32.3,25.2,22.9,-001.9,0010.33,0007.40,0007.26
2022-05-03 16:44:00,,0822.0,5.00,0.00,23.4,22.7,00.0,32.3,25.3,22.8,-002.0,0010.34,0007.37,0007.24
2022-05-03 16:45:00,,0822.0,4.99,0.00,23.4,22.7,00.0,32.3,25.3,22.9,-002.1,0010.33,0007.34,0007.20
2022-05-03 16:46:00,,0822.0,5.00,0.00,23.4,22.7,00.0,32.3,25.2,22.8,-002.0,0010.39,0007.36,0007.20
2022-05-03 16:47:00,,0822.0,5.01,0.00,23.4,22.7,00.0,32.3,25.2,22.5,-001.9,0010.52,0007.43,0007.26
2022-05-03 16:48:00,,0822.0,4.99,0.00,23.4,22.7,00.0,32.4,25.3,22.4,-002.0,0010.66,0007.52,0007.34
2022-05-03 16:49:00,,0822.0,5.01,0.00,23.4,22.7,00.0,32.4,25.3,22.5,-002.2,0010.71,0007.60,0007.40
2022-05-03 16:50:00,,0822.0,4.99,0.00,23.5,22.7,00.0,32.4,25.2,22.7,-002.3,0010.87,0007.70,0007.48
2022-05-03 16:51:00,,0821.9,5.00,0.00,23.5,22.7,00.0,32.4,25.3,22.6,-002.2,0010.94,0007.77,0007.54
2022-05-03 16:52:00,,0821.9,5.00,0.00,23.5,22.7,00.0,32.4,25.3,22.6,-002.0,0011.04,0007.84,0007.60
2022-05-03 16:53:00,,0821.8,4.99,0.00,23.5,22.7,00.0,32.4,25.3,22.7,-001.7,0011.09,0007.89,0007.66
2022-05-03 16:54:00,,0821.8,4.99,0.00,23.5,22.7,00.0,32.4,25.3,22.8,-001.3,0010.60,0007.98,0007.75
2022-05-03 16:55:00,,0822.0,5.01,0.00,23.5,22.7,00.0,32.4,25.3,22.6,-001.2,0010.64,0008.11,0007.85
2022-05-03 16:56:00,,0822.0,4.99,0.00,23.5,22.7,00.0,32.4,25.3,22.3,-001.1,0010.75,0008.21,0007.94
2022-05-03 16:57:00,,0821.8,5.01,0.00,23.5,22.7,00.0,32.4,25.3,22.5,-001.1,0010.86,0008.30,0008.01
2022-05-03 16:58:00,,0821.8,5.00,0.00,23.5,22.7,00.0,32.4,25.3,22.6,-001.4,0010.84,0008.32,0008.02
2022-05-03 16:59:00,,0821.8,4.99,0.00,23.5,22.7,00.0,32.4,25.3,22.7,-001.5,0010.81,0008.30,0008.00
